Colemans, Ontario

2:02 PM EDT on May 28, 2017 (GMT -0400)
Colemans

Weather History for 71262 - October, 2013

Change the Weather History Date:

Friday, October 25, 2013

  Actual Average Record
Temperature  
Mean Temperature 44 °F -  
Max Temperature 48 °F 47 °F - ()
Min Temperature 39 °F 36 °F - ()
Degree Days  
Heating Degree Days 22    
Moisture  
Dew Point 36 °F    
Average Humidity 76    
Maximum Humidity 93    
Minimum Humidity 62    
Precipitation  
Precipitation 0.00 in 0.10 in - ()
Sea Level Pressure  
Sea Level Pressure 30.18 in    
Wind  
Wind Speed 9 mph ()    
Max Wind Speed 18 mph    
Max Gust Speed 24 mph    
Visibility 14.3 miles    
Events Rain    
T = Trace of Precipitation, MM = Missing Value Source: Averaged Metar Reports

Daily Weather History Graph

Daily Weather History Graph

Search for Another Location

Airport or City:

Trip Planner

Search our weather history database for the weather conditions in past years. The results will help you decide how hot, cold, wet, or windy it might be!

Date:

Astronomy

Oct. 25, 2013 Rise Set
Actual Time 7:42 AM EDT 6:17 PM EDT
Civil Twilight 7:13 AM EDT 6:46 PM EDT
Nautical Twilight 6:40 AM EDT 7:20 PM EDT
Astronomical Twilight 6:07 AM EDT 7:53 PM EDT
Moon 11:33 PM EDT (10/25) 1:24 PM EDT (10/25)
Length of Visible Light 11h 33m
Length of Day
10h 34m
Waning Gibbous, 62% of the Moon is Illuminated
Oct 25
Waning Gibbous
Oct 26
Last Quarter
Nov 3
New
Nov 10
First Quarter
Nov 17
Full

Hourly Weather History & Observations

Time (EDT) Temp. Windchill Dew Point Humidity Pressure Visibility Wind Dir Wind Speed Gust Speed Precip Events Conditions
7:00 AM 39.2 °F 35.0 °F 37.4 °F 93% 30.14 in 12.0 mi WSW 5.8 mph - N/A   Mostly Cloudy
8:00 AM 39.2 °F 33.0 °F 35.6 °F 87% 30.16 in 15.0 mi WSW 9.2 mph - N/A   Mostly Cloudy
9:00 AM 39.2 °F 33.0 °F 35.6 °F 87% 30.18 in 15.0 mi WSW 9.2 mph - N/A   Partly Cloudy
9:37 AM 41.0 °F 34.7 °F 37.4 °F 87% 30.20 in 15.0 mi West 10.4 mph - N/A   Mostly Cloudy
9:47 AM 41.0 °F 34.7 °F 37.4 °F 87% 30.20 in 12.0 mi West 10.4 mph - N/A   Mostly Cloudy
10:00 AM 41.0 °F 35.2 °F 37.4 °F 87% 30.20 in 12.0 mi West 9.2 mph - N/A   Mostly Cloudy
11:00 AM 44.6 °F 38.8 °F 39.2 °F 81% 30.21 in 15.0 mi West 11.5 mph - N/A   Mostly Cloudy
11:18 AM 44.6 °F 38.8 °F 39.2 °F 81% 30.21 in 15.0 mi West 11.5 mph - N/A   Mostly Cloudy
12:00 PM 46.4 °F 41.1 °F 39.2 °F 76% 30.20 in 15.0 mi West 11.5 mph - N/A   Mostly Cloudy
1:00 PM 48.2 °F - 37.4 °F 66% 30.19 in 15.0 mi West 11.5 mph 24.2 mph N/A   Mostly Cloudy
2:00 PM 48.2 °F - 35.6 °F 62% 30.18 in 15.0 mi WNW 15.0 mph - N/A   Mostly Cloudy
3:00 PM 48.2 °F - 35.6 °F 62% 30.17 in 15.0 mi West 16.1 mph 23.0 mph N/A   Mostly Cloudy
4:00 PM 46.4 °F 39.2 °F 35.6 °F 66% 30.17 in 15.0 mi WNW 18.4 mph - N/A   Mostly Cloudy
4:08 PM 46.4 °F 40.4 °F 35.6 °F 66% 30.18 in 12.0 mi West 13.8 mph 24.2 mph N/A Rain Light Rain Showers
5:00 PM 44.6 °F 38.1 °F 37.4 °F 76% 30.18 in 12.0 mi WSW 13.8 mph - N/A Rain Light Rain Showers
5:34 PM 44.6 °F 39.2 °F 35.6 °F 71% 30.18 in 15.0 mi WSW 10.4 mph - N/A   Mostly Cloudy
6:00 PM 44.6 °F 40.7 °F 35.6 °F 71% 30.18 in 15.0 mi WSW 6.9 mph - N/A   Mostly Cloudy
7:00 PM 44.6 °F 39.7 °F 35.6 °F 71% 30.18 in 15.0 mi WSW 9.2 mph - N/A   Mostly Cloudy
8:00 PM 41.0 °F 36.4 °F 33.8 °F 76% 30.17 in 15.0 mi West 6.9 mph - N/A   Mostly Cloudy
9:00 PM 42.8 °F 39.3 °F 33.8 °F 70% 30.17 in 15.0 mi WSW 5.8 mph - N/A   Mostly Cloudy